Regional Weather Roundup
Issued by NWS Kansas City/Pleasant Hill, MO

Home | Current Version | Previous Version | Graphics & Text | Print | Product List | Glossary Off
Versions: 1 2 3 4 5 6 7 8 9 10 11 12 13 14 15 16 17 18 19 20 21 22 23 24 25 26 27 28 29 30 31 32 33 34 35 36 37 38 39 40 41 42 43 44 45 46 47 48 49 50

000
ASUS43 KEAX 240710
RWREAX

WEATHER ROUNDUP FOR EASTERN KANSAS AND NORTHWEST MISSOURI
NATIONAL WEATHER SERVICE KANSAS CITY/PLEASANT HILL MO
200 AM CDT MON APR 24 2017

KSZ040-057-103>105-MOZ028-029-037-043-240800-
...KANSAS CITY METROPOLITAN AREA...

CITY           SKY/WX    TMP DP  RH WIND       PRES   REMARKS
K.C. INTL      CLOUDY    47  37  68 S7        29.95F
K.C. DOWNTOWN  CLOUDY    53  43  68 CALM      29.95F
LEES SUMMIT    CLOUDY    53  36  52 S5        29.96F
OLATHE - IXD   CLOUDY    46  37  71 S6        29.96F
OLATHE - OJC   CLOUDY    50  38  63 S3        29.96F
LAWRENCE       CLOUDY    46  43  89 E3        29.95F

$$

MOZ001>008-011>017-020>025-030>033-038>040-044>046-053-054-240800-
...NORTHERN AND CENTRAL MISSOURI...

CITY           SKY/WX    TMP DP  RH WIND       PRES   REMARKS
ST. JOSEPH     PTCLDY    47  41  80 SW3       29.94F
MOSBY          CLOUDY    43  41  93 CALM      29.96F
WHITEMAN AFB   PTCLDY    43  42  99 NE2       29.96F
CLINTON        MOCLDY    41  41 100 CALM      29.98S
SEDALIA        NOT AVBL
WARSAW         NOT AVBL
CHILLICOTHE      N/A     45  37  73 CALM      29.97F
KIRKSVILLE     CLOUDY    51  29  42 SE3       29.97F

$$

MOZ041-047>049-056>058-063>065-088>090-097-240800-
...EASTERN AND SOUTHERN MISSOURI...

CITY           SKY/WX    TMP DP  RH WIND       PRES   REMARKS
ST. LOUIS INTL PTCLDY    50  36  58 CALM      29.98F
SPIRIT OF STL  CLEAR     40  39  97 CALM      29.97F
COLUMBIA       CLEAR     50  31  48 E3        29.97F
JEFFERSON CITY CLEAR     44  37  76 CALM      29.98S
ROLLA          CLEAR     47  34  60 E3        29.96F
OSAGE BEACH    CLEAR     41  39  93 CALM      29.99S
SPRINGFIELD    PTCLDY    43  37  79 CALM      29.98S
BRANSON        CLEAR     43  36  75 CALM      29.99R
JOPLIN         PTCLDY    41  41 100 E3        29.97F
WEST PLAINS    CLEAR     48  33  56 N3        29.97F

$$

IAZ060-094-KSZ022-034>040-054-083-096-NEZ052-066-093-240800-
...KANSAS...SOUTHEAST NEBRASKA AND IOWA...

CITY           SKY/WX    TMP DP  RH WIND       PRES   REMARKS
TOPEKA         CLOUDY    49  40  71 SE7       29.93F
MANHATTAN      CLOUDY    49  40  71 S6        29.90F
EMPORIA        PTCLDY    48  42  80 SE9       29.92F
CHANUTE        CLOUDY    43  40  89 SE5       29.95F
WICHITA        CLEAR     49  40  71 S12       29.91F
OMAHA          PTCLDY    56  35  45 S12       29.86F
LINCOLN        CLOUDY    49  36  61 S9        29.85F
FALLS CITY     CLOUDY    53  37  54 S10       29.90F
LAMONI         CLOUDY    51  32  48 SW7       29.94F
DES MOINES     CLOUDY    53  33  46 S7        29.93F

$$




USA.gov is the U.S. government's official web portal to all federal, state and local government web resources and services.